User: anonymous   Login
Location: ????????
(54.9045°N, 39.1041°E)
Time: 16:54:30
(UTC+00:00)
Language:

Cosmos 1340 Rocket - Orbit

View from above orbital plane
View from above orbital plane
View from above satellite
View from above satellite

Ground track
Ground track

The orbit data is extracted from the following two-line orbital elements,

1 13068U 82013B   24173.90668801  .00003277  00000-0  17853-3 0  9993
2 13068  81.1763 170.1004 0027104 119.4998 240.8938 15.13815120309399
Epoch (UTC): 21 June 2024 21:45:37
Eccentricity: 0.0027104
inclination: 81.1763°
perigee height: 506 km
apogee height: 543 km
right ascension of ascending node: 170.1004°
argument of perigee: 119.4998°
revolutions per day: 15.13815120
mean anomaly at epoch: 240.8938°
orbit number at epoch: 30939

The dashed part of the orbit path shows where the satellite is in the earth's shadow,  

DLR